sat.trackr.live / text

‹ back to catalog

STARLINK-37644

NORAD 69042 · 2026-101T

PAYLOAD ACTIVE UNKNOWN

§ Identity

Operator
Country
US
Launch date
2026-05-06
Launch site
AFWTR
Launch vehicle
Mass (kg)
RCS (m²)

Purposes: comms

External: N2YO · Heavens-Above · Gunter

§ Orbital elements

Epoch: 2026-05-25T04:47:01.253184Z

Period
91.48 min
Inclination
97.2846°
Eccentricity
0.0000695
Mean motion
15.74132926 rev/d
Perigee alt
346.6 km
Apogee alt
347.6 km
Semi-major
6,725.2 km
B*
-6.4047e-3
RAAN
359.9819°
Arg perigee
124.6315°
Mean anomaly
235.5015°
Rev number
302

§ Raw data

STARLINK-376441 69042U 26101T   26145.19932006 -.00828645  00000+0 -64047-2 0  99962 69042  97.2846 359.9819 0000695 124.6315 235.5015 15.74132926  3021

JSON: /api/v1/satellites/69042 · /tle

For live sub-satellite position, see the globe view (requires WebGL).

§ Visibility from observer

Set your observer location to see the next 7 days of passes ≥ 10°. The values pass through the URL so the page stays shareable.

No JS? Fill the form by hand. The geolocation button needs JavaScript.